Tracking 28096 objects as of 29-Sep-2023
HD Live streaming from Space Station
objects crossing your sky now

STTW-T1

Track STTW-T1 now!
10-day predictions
STTW-T1 is classified as:


NORAD ID: 14670
Int'l Code: 1984-008A
Perigee: 478.7 km
Apogee: 6,304.6 km
Inclination: 36.1 °
Period: 160.0 minutes
Semi major axis: 9762 km
RCS: 3.9341 m2 (large)
Launch date: January 29, 1984
Source: People's Republic of China (PRC)
Launch site: Xichang Space Center, China (XSC)
Your satellite tracking list
Your tracking list is empty




NASA's NSSDC Master Catalog

Two Line Element Set (TLE):
1 14670U 84008A   23271.77926660  .00002188  00000-0  11096-2 0  9994
2 14670  36.1339  25.3579 2983736 217.0812 118.1210  9.00019556294458
Source of the keplerian elements: AFSPC